Cloud_Cover
0 0 0 0 0 0 0 1 0 70 100 40 39 47 81 4 11 33 100 100 100 100 100 100 100 37 13 5 5 59 54 28 5 2 5 5 5 5 6 5 4 5 3 2 0 2 0 3 0
0 0 0 0 0 0 73 66 100 100 66 11 0 67 32 90 100 34 100 100 100 100 100 100 100 32 55 5 5 5 87 55 25 28 5 4 3 5 31 5 5 5 5 5 1 0 5 5 0
0 0 0 0 1 0 100 80 83 5 0 0 15 59 66 100 100 96 100 100 100 100 100 100 100 93 97 56 44 23 5 5 6 7 8 5 5 2 5 5 5 5 5 22 5 5 5 2 0
0 0 0 0 0 13 66 1 5 0 0 0 1 97 99 98 100 92 100 100 100 100 100 100 100 100 100 100 100 84 12 43 70 54 7 8 44 5 5 5 5 5 5 7 5 5 5 5 5
0 0 0 26 41 61 18 0 0 0 0 96 100 100 100 96 100 92 54 89 100 100 100 100 100 100 100 100 100 100 89 100 93 73 5 5 5 5 5 5 5 57 98 51 69 5 3 5 4
0 0 28 100 99 71 100 58 0 0 2 69 64 90 100 100 89 100 71 92 100 100 100 100 100 100 100 100 100 100 100 90 100 70 98 74 54 64 100 88 77 78 20 43 38 5 5 5 0
0 34 4 20 77 68 100 100 16 100 98 98 100 100 100 100 100 100 100 100 100 100 100 100 100 100 100 100 100 100 100 98 98 100 100 100 100 100 100 77 100 87 72 99 20 21 5 5 0
0 0 29 73 94 76 32 51 100 100 100 100 100 100 100 100 100 100 100 100 100 100 100 100 100 100 100 100 100 100 100 100 100 100 100 100 100 100 100 100 100 88 98 92 48 59 5 5 5
0 1 72 80 94 3 68 42 100 100 100 100 100 100 100 100 100 100 100 100 100 100 100 100 100 100 100 100 100 100 90 100 100 100 100 100 100 100 100 100 100 100 100 100 91 97 50 5 5
0 39 76 86 23 7 3 1 100 100 100 100 100 100 100 100 100 100 100 100 100 100 100 100 100 100 100 100 100 100 100 100 100 100 100 100 100 100 100 100 100 100 100 100 100 67 90 5 5
0 35 93 73 1 0 17 100 100 100 100 100 100 100 100 100 100 100 100 100 100 100 100 100 100 100 100 100 100 100 100 100 100 100 100 100 100 100 100 100 100 100 100 100 100 91 58 67 75
0 26 5 5 0 98 89 100 100 100 100 100 100 98 97 100 100 100 100 100 100 100 100 100 100 100 100 100 100 100 100 100 100 100 100 100 100 100 100 100 100 100 100 100 92 69 100 100 100
3 2 8 5 6 18 2 73 100 100 100 100 100 100 99 100 100 100 100 100 100 100 100 100 100 100 100 100 100 100 100 100 100 100 100 100 100 100 100 100 100 100 100 100 100 100 100 100 100
84 9 0 2 48 41 3 29 78 63 26 93 90 95 96 100 100 100 100 100 100 100 100 100 100 100 100 100 100 100 100 100 100 100 100 100 100 100 100 100 100 100 100 100 100 100 100 77 37
5 0 6 97 49 35 100 87 66 98 68 26 68 25 3 100 100 100 100 100 100 100 100 100 100 100 100 100 100 100 100 100 100 100 100 100 100 100 100 100 100 100 100 100 100 100 100 100 100
0 0 15 48 100 100 100 100 100 100 99 95 52 7 6 86 86 100 100 100 100 100 99 100 100 100 100 100 100 100 100 100 100 100 100 100 100 100 100 100 100 100 100 100 100 100 97 100 70
0 2 44 92 54 11 93 100 100 100 100 92 17 5 6 100 45 58 18 59 100 100 97 78 97 100 100 100 100 100 100 100 100 100 100 100 100 100 100 100 100 100 100 100 100 100 100 89 100
100 26 95 89 88 97 62 100 100 100 100 79 45 72 42 94 75 18 71 13 19 21 86 48 74 100 100 100 100 100 100 100 100 100 100 100 100 100 99 100 100 100 100 100 100 65 91 100 100
86 23 85 91 87 25 95 100 97 100 100 40 43 62 69 37 32 100 100 72 5 100 100 100 100 100 100 100 100 100 100 100 100 100 100 100 100 100 100 100 100 100 100 97 100 100 100 100 97
5 5 73 53 2 3 0 99 97 100 100 2 6 100 100 100 99 100 100 99 100 100 99 95 100 100 100 100 100 97 95 96 100 100 100 100 100 100 100 100 100 100 100 100 94 74 90 86 69
5 5 4 97 97 31 0 1 70 99 51 100 72 72 36 100 100 100 100 94 100 100 100 99 92 100 100 100 100 100 92 92 70 90 100 100 100 100 100 100 100 100 55 96 73 79 61 85 100
6 5 46 87 36 14 3 7 84 100 95 23 22 5 5 93 100 100 100 100 91 13 8 78 100 100 93 12 76 91 13 5 89 21 40 59 100 100 100 90 84 98 82 99 99 97 76 92 65
51 20 69 88 97 29 34 38 95 13 22 50 5 5 5 5 91 100 95 100 100 100 100 100 100 76 100 100 85 100 71 81 8 70 70 5 9 6 78 96 99 100 100 100 100 100 100 100 100
73 14 21 89 5 4 2 89 91 3 32 100 100 90 58 7 86 100 100 75 27 56 66 54 100 100 39 15 71 96 79 83 41 63 79 44 72 69 100 81 92 99 100 100 100 100 100 100 100
100 51 52 78 78 2 54 98 10 74 87 80 91 97 100 86 5 97 100 100 99 46 13 100 94 100 100 99 9 7 62 47 93 78 21 5 95 100 100 100 100 100 100 100 100 100 100 100 100
100 100 12 98 92 88 99 89 53 1 99 91 23 6 57 100 64 7 100 100 100 44 31 5 17 76 91 39 5 5 94 29 80 100 88 68 100 100 11 94 100 100 100 100 94 100 100 100 100
100 92 15 38 100 59 100 100 100 50 2 45 7 12 18 7 5 5 97 5 36 6 50 7 5 14 24 5 65 5 36 60 100 100 100 100 89 100 100 100 100 100 100 100 96 95 100 100 100
100 100 100 65 94 83 5 85 99 48 95 24 73 7 6 8 4 4 82 23 86 73 100 100 3 7 5 5 5 5 66 100 100 100 98 100 100 100 100 100 100 100 100 100 100 100 100 100 100
100 100 100 100 96 5 67 21 32 53 100 78 4 4 57 5 5 5 5 5 29 77 100 100 85 100 3 5 86 100 88 100 100 100 99 100 100 100 100 100 100 100 100 100 100 100 100 100 100
100 100 71 77 96 89 100 10 69 44 100 100 86 6 14 37 4 0 5 5 5 5 6 56 47 6 11 79 100 100 96 98 100 100 100 100 100 100 100 100 100 100 100 100 100 100 100 100 100